Flag Weather past 2 weeks in Konya, Turkey

Now
57 °F

Sprinkles. Partly sunny.


Feels Like: 57 °F
Forecast: 46 / 58 °F
Wind: 2 mph from North

Location: Konya Airport

Current Time: Oct 30, 2014 at 3:05:07 PM

Latest Report: Oct 30, 2014 at 1:58 PM


Visibility: N/A

Pressure: 29.95 "Hg

Humidity: 67%

Dew point: 46 °F

Location of KonyaLocation

Historic Weather in Konya — Graph

°F

Konya temperature yesterday

Maximum temperature yesterday: 59 °F (at 1:50 PM)
Minimum temperature yesterday: 45 °F (at 5:50 AM)
Average temperature yesterday: 52 °F

Past Weeks' High & Low Weather Summary

 TemperatureHumidityPressure
High72 °F (Oct 22, 2:50 PM)100% (Oct 16, 8:03 AM)30.24 "Hg (Oct 16, 8:03 AM)
Low30 °F (Oct 21, 4:50 AM)20% (Oct 21, 4:50 PM)29.95 "Hg (Oct 18, 3:50 PM)
Average52 °F75%30.08 "Hg
* Reported Oct 15 2:50 PM — Oct 30 1:58 PM, Konya, Weather by CustomWeather, © 2014

Note: Actual official high and low records may vary slightly from our data, if they occured in-between our weather recording intervals... More about our weather records

Advertising

Konya weather history for previous 24 hours

 ConditionsComfort  
Time TempWeatherWind HumidityBarometerVisibility
1:58 PM
Oct 30
57 °FSprinkles. Partly sunny.2 mph67%29.95 "HgN/A
12:50 PM59 °FPartly sunny.3 mph63%29.95 "HgN/A
11:50 AM57 °FBroken clouds.5 mph67%29.98 "HgN/A
10:50 AM55 °FBroken clouds.1 mph72%30.01 "HgN/A
9:50 AM55 °FBroken clouds.2 mph77%30.01 "HgN/A
8:50 AM52 °FBroken clouds.3 mph88%30.01 "HgN/A
7:50 AM48 °FBroken clouds.6 mph94%30.04 "HgN/A
6:50 AM48 °FFog.7 mph100%30.04 "Hg3 mi
5:50 AM48 °FFog.7 mph100%30.01 "Hg1 mi
4:50 AM48 °FFog.7 mph94%30.01 "Hg1 mi
3:50 AM48 °FPartly cloudy.No wind94%30.01 "Hg4 mi
2:50 AM48 °FPartly cloudy.2 mph100%30.01 "Hg4 mi
1:50 AM48 °FPartly cloudy.3 mph94%30.04 "HgN/A
12:50 AM48 °FPartly cloudy.6 mph94%30.04 "HgN/A
11:50 PM
Oct 29
50 °FPartly cloudy.5 mph94%30.04 "HgN/A
10:50 PM50 °FThunderstorms. Partly cloudy.3 mph94%30.07 "Hg5 mi
9:50 PM50 °FThunderstorms. Partly cloudy.12 mph94%30.07 "HgN/A
8:50 PM50 °FThunderstorms. Partly cloudy.5 mph94%30.07 "HgN/A
7:50 PM50 °FThunderstorms. Partly cloudy.8 mph94%30.07 "HgN/A
6:50 PM52 °FThunderstorms. Partly cloudy.14 mph82%30.07 "HgN/A
6:04 PM52 °FStrong thunderstorms. Partly cloudy.14 mph88%30.07 "Hg3 mi
5:50 PM52 °FThunderstorms. Partly cloudy.9 mph88%30.07 "HgN/A
4:50 PM57 °FSprinkles. Broken clouds.No wind82%30.04 "HgN/A
3:50 PM57 °FBroken clouds.2 mph82%30.04 "HgN/A
Weather by CustomWeather, © 2014

See weather overviewHow to use our weather pages